This is the latest recevied weather packets stored in our database for station/object BM2MWA-13. If no packets are shown the sender has not sent any weather packets the latest 10 day(s).
| Time | Temp. | Humidity | Pressure | Rain* | Wind** | Luminosity | Snow |
|---|---|---|---|---|---|---|---|
| 1787560624 | 27.22° C | 85% | 999.5 hPa | 1.52 mm | - | - | - |
| 1787560024 | 27.22° C | 86% | 999.4 hPa | 1.52 mm | - | - | - |
| 1787559423 | 27.22° C | 84% | 999.2 hPa | 1.52 mm | - | - | - |
| 1787558823 | 26.67° C | 86% | 999.2 hPa | 1.52 mm | - | - | - |
| 1787558224 | 27.22° C | 84% | 999.2 hPa | 1.52 mm | - | - | - |
| 1787557623 | 27.78° C | 84% | 999.2 hPa | 1.52 mm | - | - | - |
| 1787557024 | 27.78° C | 84% | 999.2 hPa | 1.02 mm | - | - | - |
| 1787556424 | 27.78° C | 85% | 999.2 hPa | 1.52 mm | - | - | - |
| 1787555824 | 27.78° C | 87% | 999.2 hPa | 1.02 mm | - | - | - |
| 1787555224 | 27.78° C | 86% | 999.1 hPa | 1.02 mm | - | - | - |
| 1787554623 | 27.78° C | 89% | 999.2 hPa | 1.02 mm | - | - | - |
| 1787554023 | 27.78° C | 87% | 999.2 hPa | 1.52 mm | - | - | - |
| 1787553424 | 27.78° C | 88% | 999.3 hPa | 1.52 mm | - | - | - |
| 1787552823 | 27.78° C | 87% | 999.2 hPa | 1.52 mm | - | - | - |
| 1787552224 | 27.78° C | 88% | 999.3 hPa | 1.52 mm | - | - | - |
| 1787551623 | 27.78° C | 88% | 999.3 hPa | 1.52 mm | - | - | - |
| 1787551024 | 27.78° C | 88% | 999.3 hPa | 1.52 mm | - | - | - |
| 1787550424 | 27.78° C | 89% | 999.3 hPa | 1.02 mm | - | - | - |
| 1787549824 | 28.33° C | 81% | 999.4 hPa | 1.02 mm | - | - | - |
| 1787549223 | 27.78° C | 83% | 999.5 hPa | 0.51 mm | - | - | - |
| 1787548624 | 27.78° C | 83% | 999.5 hPa | 0.51 mm | - | - | - |
| 1787548023 | 28.33° C | 83% | 999.6 hPa | 0.51 mm | - | - | - |
| 1787547424 | 27.78° C | 84% | 999.8 hPa | 0 mm | - | - | - |
| 1787546823 | 28.33° C | 84% | 999.7 hPa | 0.51 mm | - | - | - |
| 1787546223 | 28.33° C | 84% | 999.7 hPa | 0.51 mm | - | - | - |
* Rain latest hour (hover to see other rain measurements)
** Current wind speed in m/s (hover to see current wind gust speed)